Track WORLDVIEW 2 now! 10-day predictions WORLDVIEW 2 is classified as:
1 35946U 09055A 23086.19647643 .00000525 00000-0 19019-3 0 9990 2 35946 98.4543 162.3358 0002711 144.5989 215.5388 14.37433255706531